Back to catalog

STARLINK-3119

AliveCommunicationsVLEO
NORAD 49145·PAYLOAD·🇺🇸 United States

Launched Sep 14, 2021 from Vandenberg Space Force Base

Loading…

Next Passes (next 24 hours)

TLE

FreshSource: CelesTrak SupGP

Epoch: Sep 14, 2026, 21:37 UTC

1 49145C 21082R   26257.90118056 -.00022093  00000+0 -18516-2 0  2575
2 49145  70.0002 137.3707 0002867 271.7990  11.4851 14.98339191    19

Track STARLINK-3119 in real time with AllMySat

Download on the App Store